TimeCST,TemperatureF,Dew PointF,Humidity,Sea Level PressureIn,VisibilityMPH,Wind Direction,Wind SpeedMPH,Gust SpeedMPH,PrecipitationIn,Events,Conditions,WindDirDegrees,DateUTC
12:52 AM,62.1,48.0,60,29.79,10.0,South,20.7,31.1,N/A,,Scattered Clouds,190,2012-11-11 06:52:00
1:52 AM,63.0,48.9,60,29.83,10.0,South,20.7,27.6,N/A,,Partly Cloudy,190,2012-11-11 07:52:00
2:52 AM,62.1,50.0,65,29.81,10.0,South,20.7,25.3,N/A,,Scattered Clouds,180,2012-11-11 08:52:00
3:52 AM,62.1,50.0,65,29.80,10.0,South,18.4,24.2,N/A,,Clear,170,2012-11-11 09:52:00
4:52 AM,62.1,51.1,67,29.80,10.0,South,15.0,23.0,N/A,,Overcast,170,2012-11-11 10:52:00
5:52 AM,62.1,51.1,67,29.78,10.0,South,16.1,-,N/A,,Overcast,170,2012-11-11 11:52:00
6:52 AM,59.0,50.0,72,29.77,10.0,SSE,17.3,-,N/A,,Mostly Cloudy,160,2012-11-11 12:52:00
7:52 AM,61.0,50.0,67,29.76,10.0,SSE,24.2,35.7,N/A,,Scattered Clouds,160,2012-11-11 13:52:00
8:52 AM,63.0,52.0,67,29.72,10.0,South,27.6,36.8,N/A,,Mostly Cloudy,170,2012-11-11 14:52:00
9:52 AM,63.0,53.1,70,29.71,10.0,South,17.3,34.5,0.00,,Mostly Cloudy,180,2012-11-11 15:52:00
10:52 AM,63.0,54.0,72,29.71,10.0,South,21.9,35.7,N/A,,Overcast,180,2012-11-11 16:52:00
12:12 PM,62.6,53.6,72,29.66,10.0,South,20.7,29.9,N/A,,Overcast,180,2012-11-11 18:12:00
12:49 PM,60.8,55.4,82,29.67,2.5,WSW,18.4,24.2,0.02,Rain,Rain,240,2012-11-11 18:49:00
12:52 PM,60.1,55.9,86,29.66,1.8,West,19.6,26.5,0.03,Rain,Heavy Rain,280,2012-11-11 18:52:00
12:59 PM,57.2,55.4,94,29.68,2.0,WNW,18.4,32.2,0.01,Rain,Light Rain,300,2012-11-11 18:59:00
1:03 PM,57.2,55.4,94,29.68,3.0,WNW,19.6,26.5,0.02,Rain,Light Rain,300,2012-11-11 19:03:00
1:10 PM,57.2,55.4,94,29.69,2.0,WNW,24.2,29.9,0.04,Rain,Rain,300,2012-11-11 19:10:00
1:14 PM,55.4,53.6,94,29.70,1.2,WNW,23.0,29.9,0.08,Rain,Heavy Rain,300,2012-11-11 19:14:00
1:49 PM,53.6,51.8,94,29.73,3.0,WNW,19.6,26.5,0.17,Rain,Light Rain,290,2012-11-11 19:49:00
1:52 PM,53.1,51.1,93,29.73,5.0,West,21.9,28.8,0.17,Rain,Light Rain,280,2012-11-11 19:52:00
1:59 PM,53.6,51.8,94,29.73,10.0,WNW,17.3,28.8,0.00,Rain,Light Rain,290,2012-11-11 19:59:00
2:13 PM,51.8,50.0,94,29.72,10.0,WNW,16.1,-,0.01,Rain,Light Rain,290,2012-11-11 20:13:00
2:52 PM,50.0,48.0,93,29.77,4.0,West,11.5,-,0.06,Rain,Rain,260,2012-11-11 20:52:00
3:23 PM,48.2,46.4,93,29.77,7.0,WSW,11.5,-,0.02,Rain,Light Rain,240,2012-11-11 21:23:00
3:52 PM,46.0,44.1,93,29.80,5.0,West,24.2,-,0.07,Rain,Rain,270,2012-11-11 21:52:00
4:13 PM,44.6,42.8,93,29.80,4.0,West,21.9,27.6,0.05,Rain,Rain,280,2012-11-11 22:13:00
4:45 PM,39.2,37.4,93,29.84,3.0,WNW,19.6,-,0.15,Rain,Heavy Rain,290,2012-11-11 22:45:00
4:52 PM,39.0,37.9,96,29.85,3.0,West,18.4,-,0.19,Rain,Heavy Rain,280,2012-11-11 22:52:00
5:26 PM,37.4,35.6,93,29.86,6.0,WNW,16.1,-,0.07,Rain,Rain,290,2012-11-11 23:26:00
5:41 PM,37.4,35.6,93,29.87,4.0,WNW,17.3,-,0.13,Rain,Rain,290,2012-11-11 23:41:00
5:52 PM,37.0,35.1,93,29.90,5.0,West,21.9,-,0.16,Rain,Rain,280,2012-11-11 23:52:00
6:52 PM,36.0,32.0,86,29.90,10.0,WNW,16.1,-,0.03,,Overcast,300,2012-11-12 00:52:00
7:00 PM,35.6,32.0,87,29.91,10.0,WNW,19.6,24.2,N/A,,Overcast,290,2012-11-12 01:00:00
7:09 PM,35.6,32.0,87,29.94,10.0,WNW,19.6,25.3,N/A,,Overcast,290,2012-11-12 01:09:00
7:43 PM,35.6,32.0,87,29.93,9.0,WNW,16.1,23.0,0.00,,Overcast,300,2012-11-12 01:43:00
7:52 PM,35.1,32.0,89,29.95,10.0,WNW,12.7,23.0,0.00,,Overcast,290,2012-11-12 01:52:00
8:27 PM,33.8,30.2,87,29.98,7.0,West,20.7,24.2,N/A,,Overcast,280,2012-11-12 02:27:00
8:52 PM,34.0,30.0,85,29.99,9.0,WNW,20.7,-,N/A,,Overcast,290,2012-11-12 02:52:00
9:02 PM,33.8,28.4,81,29.98,10.0,WNW,20.7,29.9,N/A,,Overcast,290,2012-11-12 03:02:00
9:52 PM,33.1,28.0,82,30.03,10.0,West,17.3,-,N/A,,Overcast,280,2012-11-12 03:52:00
10:52 PM,32.0,26.1,79,30.04,10.0,West,19.6,-,N/A,,Overcast,280,2012-11-12 04:52:00
11:52 PM,30.0,24.1,79,30.05,10.0,West,23.0,27.6,N/A,,Overcast,280,2012-11-12 05:52:00